Location: Shepherdstown, WV
(39.4326°N, 77.8042°W)
Time: 03:30:54
(UTC-04:00)

Vanguard 1 - Pass Details

Date: 29 September 2021
Orbit: 653 x 3829 km, 34.2° (Epoch: 18 October)

Event Time Altitude Azimuth Distance (km) Brightness Sun altitude
Rises 00:47:23 0° 283° (WNW) 7,223 14.6 -52.9°
Reaches altitude 10° 00:52:01 10° 279° (W) 6,478 14.3 -53.0°
Enters shadow 01:03:04 36° 260° (W) 5,012 13.4 -53.1°
